Weather History for Newark, NJ

Change the Weather History Date:

Friday, February 15, 2013

  Actual Average Record
Temperature  
Mean Temperature 45 °F 35 °F  
Max Temperature 57 °F 42 °F 76 °F (1949)
Min Temperature 32 °F 27 °F -7 °F (1943)
Degree Days  
Heating Degree Days 20 30  
Month to date heating degree days 485 475  
Since 1 July heating degree days 3006 3259  
Cooling Degree Days 0 0  
Month to date cooling degree days 0 0  
Year to date cooling degree days 0 0  
Moisture  
Dew Point 31 °F    
Average Humidity 62    
Maximum Humidity 89    
Minimum Humidity 35    
Precipitation  
Precipitation T in 0.10 in 1.65 in (1984)
Month to date precipitation 1.76 1.50  
Year to date precipitation 4.25 5.04  
Snow  
Snow 0.00 in 0.40 in 4.20 in (1958)
Month to date snowfall 10.8 5.1  
Since 1 July snowfall 20.7 18.8  
Snow Depth 0.00 in    
Sea Level Pressure  
Sea Level Pressure 29.97 in    
Wind  
Wind Speed 7 mph (SW)    
Max Wind Speed 20 mph    
Max Gust Speed 29 mph    
Visibility 9 miles    
Events Rain    
T = Trace of Precipitation, MM = Missing Value Source: NWS Daily Summary

Daily Weather History Graph

Daily Weather History Graph

Search for Another Location

Airport:

Trip Planner

Search our weather history database for the weather conditions in past years. The results will help you decide how hot, cold, wet, or windy it might be!

Date:

Astronomy

Feb. 15, 2013 Rise Set
Actual Time 6:50 AM EST 5:31 PM EST
Civil Twilight 6:22 AM EST 5:59 PM EST
Nautical Twilight 5:50 AM EST 6:31 PM EST
Astronomical Twilight 5:18 AM EST 7:03 PM EST
Moon 9:22 AM EST (2/15) 11:32 PM EST (2/15)
Length of Visible Light 11h 37m
Length of Day
10h 41m
Waxing Crescent, 30% of the Moon is Illuminated
Feb 15
Waxing Crescent
Feb 17
First Quarter
Feb 25
Full
Mar 4
Last Quarter
Mar 11
New

Hourly Weather History & Observations

Time (EST) Temp. Windchill Dew Point Humidity Pressure Visibility Wind Dir Wind Speed Gust Speed Precip Events Conditions
12:51 AM 36.0 °F 32.1 °F 28.9 °F 76% 30.01 in 9.0 mi SSW 4.6 mph - N/A   Scattered Clouds
1:51 AM 35.1 °F 32.2 °F 30.0 °F 82% 30.00 in 9.0 mi Variable 3.5 mph - N/A   Mostly Cloudy
2:51 AM 36.0 °F - 30.0 °F 79% 29.99 in 8.0 mi Calm Calm - N/A   Overcast
3:51 AM 34.0 °F 31.0 °F 28.9 °F 82% 29.99 in 8.0 mi Variable 3.5 mph - N/A   Overcast
4:51 AM 35.1 °F 28.6 °F 30.0 °F 82% 30.01 in 7.0 mi SW 8.1 mph - N/A   Mostly Cloudy
5:51 AM 35.1 °F 32.2 °F 30.0 °F 82% 29.99 in 7.0 mi SW 3.5 mph - N/A   Mostly Cloudy
6:51 AM 33.1 °F 27.7 °F 30.0 °F 89% 30.00 in 5.0 mi SW 5.8 mph - N/A   Mostly Cloudy
7:51 AM 36.0 °F 28.5 °F 30.9 °F 82% 30.01 in 5.0 mi SW 10.4 mph - N/A   Haze
8:51 AM 39.0 °F 32.8 °F 32.0 °F 76% 30.02 in 7.0 mi SW 9.2 mph - N/A   Mostly Cloudy
9:51 AM 43.0 °F 38.8 °F 33.1 °F 68% 30.02 in 8.0 mi SW 6.9 mph - N/A   Scattered Clouds
10:51 AM 46.0 °F 41.0 °F 32.0 °F 58% 30.02 in 9.0 mi SW 10.4 mph - N/A   Scattered Clouds
11:51 AM 48.9 °F - 32.0 °F 52% 29.99 in 10.0 mi WSW 8.1 mph - N/A   Partly Cloudy
12:51 PM 52.0 °F - 30.0 °F 43% 29.96 in 10.0 mi WSW 9.2 mph 17.3 mph N/A   Partly Cloudy
1:51 PM 55.9 °F - 30.9 °F 39% 29.94 in 10.0 mi SSW 13.8 mph 19.6 mph N/A   Scattered Clouds
2:51 PM 55.9 °F - 28.9 °F 36% 29.92 in 10.0 mi SW 13.8 mph 25.3 mph N/A   Scattered Clouds
3:51 PM 53.1 °F - 35.1 °F 50% 29.92 in 10.0 mi East 4.6 mph - N/A   Scattered Clouds
4:51 PM 54.0 °F - 28.0 °F 37% 29.92 in 10.0 mi WSW 9.2 mph - N/A   Scattered Clouds
5:51 PM 48.0 °F - 37.0 °F 66% 29.93 in 10.0 mi ENE 4.6 mph - N/A   Mostly Cloudy
6:51 PM 46.0 °F - 37.0 °F 71% 29.91 in 9.0 mi Calm Calm - N/A   Mostly Cloudy
7:51 PM 46.0 °F 44.8 °F 37.0 °F 71% 29.92 in 9.0 mi East 3.5 mph - N/A   Mostly Cloudy
8:51 PM 46.0 °F - 37.9 °F 73% 29.93 in 9.0 mi Calm Calm - N/A   Overcast
9:51 PM 46.9 °F - 27.0 °F 46% 29.93 in 10.0 mi NNW 6.9 mph - N/A   Overcast
10:51 PM 46.9 °F - 25.0 °F 42% 29.96 in 10.0 mi WNW 9.2 mph - N/A   Overcast
11:51 PM 42.1 °F 34.5 °F 32.0 °F 67% 29.96 in 10.0 mi NW 15.0 mph 28.8 mph 0.00 in Rain Light Rain